• In Belarus
  • List of Countries
  • For 7 days
  • Water Temperature
  • Weather Map
  • Weather Widgets
  • user-avatar
    Login

    Hourly Weather San Miguel de Tucumán

    Today, 17 August, Saturday

    Time Temperature Precipitation Wind Pressure Humidity
    00:00 +19°C° 0 mm 1 mps 714 mmHg 39%
    01:00 +19°C° 0 mm 1 mps 714 mmHg 40%
    02:00 +16°C° 0 mm 0 mps 713 mmHg 40%
    03:00 +18°C° 0 mm 1 mps 713 mmHg 39%
    04:00 +18°C° 0 mm 1 mps 713 mmHg 38%
    05:00 +18°C° 0 mm 1 mps 713 mmHg 37%
    06:00 +19°C° 0 mm 1 mps 714 mmHg 35%
    07:00 +20°C° 0 mm 1 mps 714 mmHg 33%
    08:00 +20°C° 0 mm 1 mps 715 mmHg 30%
    09:00 +21°C° 0 mm 2 mps 716 mmHg 28%
    10:00 +25°C° 0 mm 2 mps 716 mmHg 26%
    11:00 +27°C° 0 mm 3 mps 716 mmHg 24%
    12:00 +28°C° 0 mm 3 mps 716 mmHg 25%
    13:00 +29°C° 0 mm 3 mps 716 mmHg 25%
    14:00 +30°C° 0 mm 4 mps 716 mmHg 26%
    15:00 +29°C° 0 mm 3 mps 716 mmHg 27%
    16:00 +28°C° 0 mm 3 mps 717 mmHg 28%
    17:00 +28°C° 0 mm 3 mps 717 mmHg 29%
    18:00 +25°C° 0 mm 3 mps 718 mmHg 35%
    19:00 +23°C° 0 mm 2 mps 718 mmHg 42%
    20:00 +20°C° 0 mm 1 mps 719 mmHg 48%
    21:00 +20°C° 0 mm 1 mps 719 mmHg 51%
    22:00 +19°C° 0 mm 1 mps 720 mmHg 55%
    23:00 +18°C° 0 mm 1 mps 720 mmHg 59%

    Tomorrow, 18 August, Sunday

    Time Temperature Precipitation Wind Pressure Humidity
    00:00 +18°C° 0 mm 1 mps 720 mmHg 61%
    01:00 +16°C° 0 mm 1 mps 720 mmHg 63%
    02:00 +16°C° 0 mm 1 mps 720 mmHg 66%
    03:00 +16°C° 0 mm 1 mps 721 mmHg 65%
    04:00 +16°C° 0 mm 1 mps 721 mmHg 65%
    05:00 +16°C° 0 mm 1 mps 721 mmHg 64%
    06:00 +16°C° 0 mm 2 mps 722 mmHg 62%
    07:00 +16°C° 0 mm 2 mps 722 mmHg 60%
    08:00 +16°C° 0 mm 2 mps 723 mmHg 58%
    09:00 +17°C° 0 mm 2 mps 723 mmHg 55%
    10:00 +18°C° 0 mm 2 mps 723 mmHg 51%
    11:00 +19°C° 0 mm 2 mps 724 mmHg 48%
    12:00 +20°C° 0 mm 3 mps 723 mmHg 44%
    13:00 +21°C° 0 mm 3 mps 722 mmHg 39%
    14:00 +24°C° 0 mm 3 mps 722 mmHg 34%
    15:00 +22°C° 0 mm 3 mps 722 mmHg 33%
    16:00 +22°C° 0 mm 3 mps 722 mmHg 32%
    17:00 +22°C° 0 mm 3 mps 722 mmHg 31%
    18:00 +19°C° 0 mm 2 mps 723 mmHg 36%
    19:00 +17°C° 0 mm 2 mps 723 mmHg 41%
    20:00 +15°C° 0 mm 1 mps 724 mmHg 46%
    21:00 +14°C° 0 mm 1 mps 724 mmHg 48%
    22:00 +14°C° 0 mm 1 mps 725 mmHg 51%
    23:00 +13°C° 0 mm 1 mps 725 mmHg 53%

    Day after tomorrow, 19 August, Monday

    Time Temperature Precipitation Wind Pressure Humidity
    00:00 +12°C° 0 mm 1 mps 725 mmHg 56%
    01:00 +12°C° 0 mm 1 mps 725 mmHg 59%
    02:00 +11°C° 0 mm 1 mps 725 mmHg 61%
    03:00 +9°C° 0 mm 0 mps 724 mmHg 64%
    04:00 +9°C° 0 mm 0 mps 724 mmHg 67%
    05:00 +8°C° 0 mm 0 mps 724 mmHg 70%
    06:00 +9°C° 0 mm 0 mps 724 mmHg 67%
    07:00 +10°C° 0 mm 0 mps 725 mmHg 64%
    08:00 +11°C° 0 mm 0 mps 725 mmHg 62%
    09:00 +14°C° 0 mm 1 mps 725 mmHg 57%
    10:00 +16°C° 0 mm 1 mps 725 mmHg 51%
    11:00 +18°C° 0 mm 2 mps 725 mmHg 46%
    12:00 +19°C° 0 mm 2 mps 724 mmHg 44%
    13:00 +20°C° 0 mm 2 mps 723 mmHg 41%
    14:00 +21°C° 0 mm 3 mps 723 mmHg 38%
    15:00 +20°C° 0 mm 2 mps 722 mmHg 39%
    16:00 +20°C° 0 mm 2 mps 722 mmHg 40%
    17:00 +19°C° 0 mm 2 mps 722 mmHg 41%
    18:00 +17°C° 0 mm 2 mps 722 mmHg 46%
    19:00 +16°C° 0 mm 1 mps 723 mmHg 51%
    20:00 +14°C° 0 mm 1 mps 723 mmHg 55%
    21:00 +13°C° 0 mm 1 mps 724 mmHg 59%
    22:00 +11°C° 0 mm 0 mps 724 mmHg 63%
    23:00 +10°C° 0 mm 0 mps 724 mmHg 67%

    20 August, Tuesday

    Time Temperature Precipitation Wind Pressure Humidity
    00:00 +10°C° 0 mm 0 mps 724 mmHg 68%
    01:00 +9°C° 0 mm 0 mps 724 mmHg 69%
    02:00 +10°C° 0 mm 1 mps 724 mmHg 70%
    03:00 +8°C° 0 mm 0 mps 724 mmHg 73%
    04:00 +7°C° 0 mm 0 mps 724 mmHg 75%
    05:00 +7°C° 0 mm 0 mps 724 mmHg 78%
    06:00 +8°C° 0 mm 0 mps 725 mmHg 74%
    07:00 +10°C° 0 mm 1 mps 725 mmHg 70%
    08:00 +10°C° 0 mm 1 mps 726 mmHg 66%
    09:00 +13°C° 0 mm 1 mps 726 mmHg 57%
    10:00 +15°C° 0 mm 1 mps 726 mmHg 49%
    11:00 +19°C° 0 mm 1 mps 726 mmHg 40%
    12:00 +19°C° 0 mm 2 mps 725 mmHg 37%
    13:00 +20°C° 0 mm 2 mps 725 mmHg 34%
    14:00 +23°C° 0 mm 2 mps 724 mmHg 31%
    15:00 +21°C° 0 mm 2 mps 724 mmHg 32%
    16:00 +21°C° 0 mm 3 mps 724 mmHg 32%
    17:00 +20°C° 0 mm 3 mps 723 mmHg 33%
    18:00 +18°C° 0 mm 2 mps 724 mmHg 37%
    19:00 +16°C° 0 mm 2 mps 724 mmHg 42%
    20:00 +14°C° 0 mm 1 mps 724 mmHg 46%
    21:00 +13°C° 0 mm 1 mps 724 mmHg 48%
    22:00 +12°C° 0 mm 1 mps 724 mmHg 50%
    23:00 +12°C° 0 mm 1 mps 724 mmHg 52%

    21 August, Wednesday

    Time Temperature Precipitation Wind Pressure Humidity
    00:00 +11°C° 0 mm 1 mps 724 mmHg 53%
    01:00 +11°C° 0 mm 1 mps 724 mmHg 54%
    02:00 +10°C° 0 mm 1 mps 723 mmHg 56%
    03:00 +10°C° 0 mm 1 mps 723 mmHg 56%
    04:00 +9°C° 0 mm 0 mps 723 mmHg 57%
    05:00 +8°C° 0 mm 0 mps 723 mmHg 58%
    06:00 +9°C° 0 mm 0 mps 723 mmHg 54%
    07:00 +10°C° 0 mm 0 mps 724 mmHg 51%
    08:00 +11°C° 0 mm 0 mps 724 mmHg 47%
    09:00 +15°C° 0 mm 1 mps 724 mmHg 41%
    10:00 +19°C° 0 mm 1 mps 724 mmHg 34%
    11:00 +22°C° 0 mm 1 mps 724 mmHg 28%
    12:00 +23°C° 0 mm 1 mps 723 mmHg 26%
    13:00 +24°C° 0 mm 2 mps 722 mmHg 25%
    14:00 +26°C° 0 mm 2 mps 722 mmHg 23%
    15:00 +26°C° 0 mm 2 mps 721 mmHg 24%
    16:00 +25°C° 0 mm 2 mps 721 mmHg 24%
    17:00 +25°C° 0 mm 3 mps 721 mmHg 25%
    18:00 +23°C° 0 mm 2 mps 721 mmHg 31%
    19:00 +19°C° 0 mm 2 mps 721 mmHg 36%
    20:00 +18°C° 0 mm 1 mps 722 mmHg 42%
    21:00 +16°C° 0 mm 1 mps 722 mmHg 43%
    22:00 +15°C° 0 mm 1 mps 722 mmHg 45%
    23:00 +15°C° 0 mm 1 mps 722 mmHg 46%

    22 August, Thursday

    Time Temperature Precipitation Wind Pressure Humidity
    00:00 +14°C° 0 mm 1 mps 722 mmHg 47%
    01:00 +14°C° 0 mm 1 mps 721 mmHg 47%
    02:00 +14°C° 0 mm 1 mps 721 mmHg 48%
    03:00 +13°C° 0 mm 1 mps 721 mmHg 49%
    04:00 +13°C° 0 mm 1 mps 721 mmHg 51%
    05:00 +12°C° 0 mm 1 mps 721 mmHg 53%
    06:00 +13°C° 0 mm 1 mps 722 mmHg 50%
    07:00 +14°C° 0 mm 1 mps 722 mmHg 47%
    08:00 +16°C° 0 mm 1 mps 723 mmHg 44%
    09:00 +19°C° 0 mm 1 mps 723 mmHg 39%
    10:00 +22°C° 0 mm 1 mps 724 mmHg 34%
    11:00 +24°C° 0 mm 2 mps 724 mmHg 29%
    12:00 +25°C° 0 mm 2 mps 723 mmHg 28%
    13:00 +26°C° 0 mm 2 mps 723 mmHg 26%
    14:00 +28°C° 0 mm 2 mps 722 mmHg 24%
    15:00 +27°C° 0 mm 2 mps 723 mmHg 25%
    16:00 +27°C° 0 mm 2 mps 723 mmHg 26%
    17:00 +26°C° 0 mm 1 mps 723 mmHg 27%
    18:00 +24°C° 0 mm 1 mps 723 mmHg 32%
    19:00 +22°C° 0 mm 1 mps 723 mmHg 37%
    20:00 +19°C° 0 mm 1 mps 724 mmHg 43%
    21:00 +19°C° 0 mm 1 mps 724 mmHg 44%
    22:00 +18°C° 0 mm 1 mps 724 mmHg 46%
    23:00 +15°C° 0 mm 0 mps 725 mmHg 48%
    Show more